Location: Dyersburg
(36.0438°N, 89.3789°W)
Time: 10:06:26
(UTC+00:00)

Hubble Space Telescope - Visible Passes

Search period start: 27 January 2020 00:00
Search period end: 06 February 2020 00:00
Orbit: 536 x 540 km, 28.5° (Epoch: 25 January)

Date Brightness Start Highest point End Pass type
(mag) Time Alt. Az. Time Alt. Az. Time Alt. Az.
27 Jan 3.6 12:30:38 10° S 12:32:12 12° SSE 12:33:46 10° SE visible
28 Jan 3.5 12:19:13 10° SSW 12:21:28 14° SSE 12:23:43 10° SE visible
29 Jan 3.3 12:08:04 10° SSW 12:10:44 17° SSE 12:13:25 10° ESE visible
30 Jan 3.0 11:57:04 10° SSW 12:00:01 19° SSE 12:02:59 10° ESE visible
31 Jan 2.8 11:46:08 10° SW 11:49:19 22° SSE 11:52:30 10° ESE visible
01 Feb 2.6 11:35:59 13° SW 11:38:37 24° S 11:41:56 10° ESE visible
02 Feb 2.4 11:26:07 19° SSW 11:27:55 26° S 11:31:21 10° ESE visible
03 Feb 2.2 11:16:11 24° SSW 11:17:13 27° S 11:20:44 10° ESE visible
04 Feb 2.1 11:06:13 28° S 11:06:32 28° S 11:10:05 10° ESE visible
05 Feb 2.2 10:56:12 28° S 10:56:12 28° S 10:59:25 10° ESE visible
